カタログに戻る

SL-8 R/B

運用中LEO
NORAD 4800·ROCKET BODY·🇷🇺 Russia

打ち上げ Dec 12, 1970 から Plesetsk Cosmodrome

Loading…

次のパス

TLE

Source: Space-Track
1 04800U 70108B   26218.95206172  .00000102  00000-0  12177-3 0  9993
2 04800  74.0201 206.5193 0010269 265.0447  94.9502 13.79010549799070

AllMySatでSL-8 R/Bをリアルタイム追跡

Download on the App Store